Voltar ao catálogo

STARLINK-30079

AtivoComunicaçõesVLEO
NORAD 56706·PAYLOAD·🇺🇸 United States

Lançado May 19, 2023 de Cape Canaveral Space Force Station

Loading…

Próximas Passagens (próximas 24 horas)

TLE

AtualizadoSource: CelesTrak SupGP

Época: Sep 15, 2026, 02:47 UTC

1 56706C 23067U   26258.11645833  .00012303  00000+0  44572-3 0  2587
2 56706  43.0027 291.6045 0001562 251.0611 311.1803 15.27564121    11

Acompanhe STARLINK-30079 em tempo real com AllMySat

Download on the App Store